Flag for Germany Weather past 2 weeks in Emsdetten, North Rhine-Westphalia, Germany

Now
59 °F

Partly sunny.


Feels Like: 59 °F
Forecast: 54 / 69 °F
Wind: 5 mph from Southeast

Location: Muenster / Osnabrueck

Current Time: Oct 2, 2014 at 10:54:35 AM

Latest Report: Oct 2, 2014 at 10:20 AM


Visibility: 5 mi

Pressure: 30.39 "Hg

Humidity: 94%

Dew point: 57 °F

Location of EmsdettenLocation

Historic Weather in Emsdetten — Graph

°F

Emsdetten temperature yesterday

Maximum temperature yesterday: 66 °F (at 1:20 PM)
Minimum temperature yesterday: 52 °F (at 12:20 AM)
Average temperature yesterday: 58 °F

Past Weeks' High & Low Weather Summary

 TemperatureHumidityPressure
High79 °F (Sep 18, 2:20 PM)100% (Sep 18, 3:50 AM)30.39 "Hg (Sep 18, 3:50 AM)
Low41 °F (Sep 23, 5:50 AM)45% (Sep 22, 5:20 PM)29.80 "Hg (Sep 24, 4:20 PM)
Average59 °F86%30.09 "Hg
* Reported Sep 17 9:20 AM — Oct 2 9:50 AM, Emsdetten, Weather by CustomWeather, © 2014

Note: Actual official high and low records may vary slightly from our data, if they occured in-between our weather recording intervals... More about our weather records

Advertising

Emsdetten weather history for previous 24 hours

 ConditionsComfort  
Time TempWeatherWind HumidityBarometerVisibility
9:50 AM
Oct 2
59 °FPartly sunny.3 mph94%30.39 "Hg4 mi
9:20 AM57 °FBroken clouds.2 mph94%30.39 "Hg4 mi
8:50 AM57 °FBroken clouds.2 mph94%30.39 "Hg4 mi
8:20 AM57 °FFog.2 mph94%30.36 "Hg3 mi
7:50 AM57 °FFog.2 mph100%30.36 "Hg2 mi
7:20 AM57 °FFog.3 mph100%30.36 "Hg2 mi
6:50 AM57 °FFog.3 mph100%30.36 "Hg3 mi
6:20 AM57 °FFog.3 mph100%30.36 "Hg3 mi
5:50 AM57 °FFog.3 mph94%30.36 "Hg3 mi
5:20 AM57 °FFog.2 mph100%30.36 "Hg2 mi
4:50 AM57 °FFog.3 mph100%30.36 "Hg2 mi
4:20 AM57 °FFog.3 mph100%30.36 "Hg2 mi
3:50 AM57 °FFog.2 mph100%30.36 "Hg2 mi
3:20 AM57 °FFog.1 mph94%30.36 "Hg3 mi
2:50 AM57 °FFog.1 mph94%30.36 "Hg2 mi
2:20 AM57 °FFog.1 mph100%30.36 "Hg2 mi
1:50 AM55 °FFog.1 mph100%30.36 "Hg2 mi
1:20 AM55 °FFog.1 mph100%30.36 "Hg2 mi
12:50 AM55 °FFog.1 mph100%30.36 "Hg2 mi
12:20 AM55 °FFog.1 mph100%30.36 "Hg2 mi
11:50 PM
Oct 1
54 °FFog.2 mph100%30.33 "Hg2 mi
11:20 PM54 °FCool.2 mph100%30.33 "Hg2 mi
10:50 PM54 °FCool.1 mph100%30.33 "Hg2 mi
10:20 PM54 °FCool.1 mph100%30.33 "Hg2 mi
9:50 PM55 °FCool.1 mph100%30.33 "Hg2 mi
9:20 PM55 °FFog.1 mph100%30.33 "Hg3 mi
8:50 PM55 °FFog.2 mph100%30.33 "Hg4 mi
8:20 PM57 °FFog.2 mph100%30.33 "Hg4 mi
7:50 PM57 °FFog.1 mph100%30.33 "Hg4 mi
7:20 PM61 °FFog.2 mph83%30.33 "Hg4 mi
6:50 PM63 °FClear.2 mph83%30.33 "Hg6 mi
6:20 PM63 °FClear.3 mph83%30.30 "Hg6 mi
5:50 PM64 °FClear.6 mph73%30.30 "Hg6 mi
5:20 PM64 °FPartly sunny.7 mph73%30.30 "Hg6 mi
4:50 PM64 °FPartly sunny.8 mph78%30.30 "Hg6 mi
4:20 PM64 °FPartly sunny.6 mph78%30.30 "Hg6 mi
3:50 PM64 °FScattered clouds.8 mph78%30.30 "Hg6 mi
3:20 PM66 °FBroken clouds.8 mph73%30.30 "Hg6 mi
2:50 PM66 °FPartly sunny.9 mph73%30.30 "Hg6 mi
2:20 PM66 °FScattered clouds.9 mph73%30.30 "Hg6 mi
1:50 PM64 °FScattered clouds.9 mph78%30.30 "Hg6 mi
1:20 PM66 °FScattered clouds.7 mph73%30.30 "Hg5 mi
12:50 PM63 °FPartly sunny.7 mph83%30.30 "Hg4 mi
12:20 PM63 °FPartly sunny.6 mph88%30.30 "Hg4 mi
11:50 AM63 °FBroken clouds.5 mph88%30.30 "Hg4 mi
11:20 AM63 °FPartly sunny.6 mph88%30.30 "Hg4 mi
10:50 AM61 °FFog.2 mph88%30.30 "Hg3 mi
10:20 AM57 °FFog.3 mph94%30.30 "Hg3 mi
Weather by CustomWeather, © 2014

See weather overviewHow to use our weather pages